Location: Baix
(44.7118°N, 4.7648°E)
Time: 16:39:36
(UTC+00:00)

Cosmos 2151 Rocket - Pass Details

Date: 07 August 2020
Orbit: 618 x 641 km, 82.5° (Epoch: 23 September)

Event Time Altitude Azimuth Distance (km) Brightness Sun altitude
Exits shadow 01:12:29 64° 340° (NNW) 691 3.8 -25.9°
Drops below altitude 10° 01:16:20 10° 6° (N) 1,999 7.1 -25.6°
Sets 01:18:35 0° 8° (N) 2,908 8.2 -25.5°
